• In Hungary
  • List of Countries
  • For 7 days
  • Water Temperature
  • Satellite Maps
  • Weather Map
  • News
  • Weather Widgets
  • user-avatar
    Login

    Hourly Weather Filderstadt

    Today, 15 October, Monday

    Time Temperature Precipitation Wind Pressure Humidity
    00:00 +14°C° 0 mm 1 mps 725 mmHg 76%
    01:00 +14°C° 0 mm 2 mps 725 mmHg 75%
    02:00 +14°C° 0 mm 1 mps 725 mmHg 75%
    03:00 +13°C° 0 mm 1 mps 725 mmHg 74%
    04:00 +13°C° 0 mm 1 mps 726 mmHg 74%
    05:00 +12°C° 0 mm 1 mps 726 mmHg 74%
    06:00 +12°C° 0 mm 1 mps 726 mmHg 75%
    07:00 +12°C° 0 mm 1 mps 726 mmHg 75%
    08:00 +14°C° 0 mm 1 mps 726 mmHg 69%
    09:00 +18°C° 0 mm 1 mps 726 mmHg 62%
    10:00 +18°C° 0 mm 0 mps 727 mmHg 56%
    11:00 +21°C° 0 mm 1 mps 727 mmHg 53%
    12:00 +22°C° 0 mm 1 mps 727 mmHg 51%
    13:00 +23°C° 0 mm 1 mps 727 mmHg 48%
    14:00 +23°C° 0 mm 1 mps 726 mmHg 50%
    15:00 +23°C° 0 mm 1 mps 726 mmHg 53%
    16:00 +22°C° 0 mm 1 mps 726 mmHg 56%
    17:00 +20°C° 0 mm 1 mps 726 mmHg 62%
    18:00 +18°C° 0 mm 1 mps 726 mmHg 68%
    19:00 +15°C° 0 mm 1 mps 726 mmHg 74%
    20:00 +14°C° 0 mm 1 mps 727 mmHg 76%
    21:00 +14°C° 0 mm 1 mps 727 mmHg 78%
    22:00 +13°C° 0 mm 1 mps 727 mmHg 80%
    23:00 +13°C° 0 mm 1 mps 727 mmHg 81%

    Tomorrow, 16 October, Tuesday

    Time Temperature Precipitation Wind Pressure Humidity
    00:00 +13°C° 0 mm 1 mps 728 mmHg 82%
    01:00 +12°C° 0 mm 1 mps 728 mmHg 83%
    02:00 +12°C° 0 mm 1 mps 728 mmHg 83%
    03:00 +12°C° 0 mm 1 mps 728 mmHg 84%
    04:00 +11°C° 0 mm 0 mps 728 mmHg 84%
    05:00 +11°C° 0 mm 0 mps 728 mmHg 84%
    06:00 +11°C° 0 mm 1 mps 728 mmHg 84%
    07:00 +11°C° 0 mm 1 mps 729 mmHg 84%
    08:00 +13°C° 0 mm 0 mps 729 mmHg 75%
    09:00 +15°C° 0 mm 0 mps 729 mmHg 67%
    10:00 +17°C° 0 mm 0 mps 730 mmHg 58%
    11:00 +19°C° 0 mm 0 mps 730 mmHg 55%
    12:00 +22°C° 0 mm 1 mps 730 mmHg 51%
    13:00 +23°C° 0 mm 1 mps 730 mmHg 47%
    14:00 +23°C° 0 mm 1 mps 729 mmHg 50%
    15:00 +22°C° 0 mm 1 mps 729 mmHg 54%
    16:00 +22°C° 0 mm 1 mps 729 mmHg 57%
    17:00 +20°C° 0 mm 1 mps 729 mmHg 64%
    18:00 +18°C° 0 mm 1 mps 729 mmHg 71%
    19:00 +15°C° 0 mm 1 mps 730 mmHg 78%
    20:00 +14°C° 0 mm 1 mps 730 mmHg 80%
    21:00 +14°C° 0 mm 1 mps 730 mmHg 82%
    22:00 +13°C° 0 mm 1 mps 730 mmHg 84%
    23:00 +13°C° 0 mm 1 mps 730 mmHg 85%

    Day after tomorrow, 17 October, Wednesday

    Time Temperature Precipitation Wind Pressure Humidity
    00:00 +11°C° 0 mm 0 mps 730 mmHg 85%
    01:00 +11°C° 0 mm 0 mps 730 mmHg 86%
    02:00 +11°C° 0 mm 0 mps 729 mmHg 86%
    03:00 +11°C° 0 mm 0 mps 729 mmHg 87%
    04:00 +10°C° 0 mm 0 mps 729 mmHg 87%
    05:00 +10°C° 0 mm 0 mps 729 mmHg 87%
    06:00 +10°C° 0 mm 0 mps 729 mmHg 88%
    07:00 +10°C° 0 mm 0 mps 729 mmHg 88%
    08:00 +12°C° 0 mm 0 mps 729 mmHg 80%
    09:00 +14°C° 0 mm 0 mps 729 mmHg 72%
    10:00 +19°C° 0 mm 1 mps 729 mmHg 64%
    11:00 +20°C° 0 mm 1 mps 729 mmHg 61%
    12:00 +21°C° 0 mm 1 mps 729 mmHg 58%
    13:00 +21°C° 0 mm 2 mps 729 mmHg 54%
    14:00 +21°C° 0 mm 2 mps 728 mmHg 57%
    15:00 +20°C° 0 mm 2 mps 728 mmHg 59%
    16:00 +20°C° 0 mm 2 mps 728 mmHg 62%
    17:00 +18°C° 0 mm 2 mps 728 mmHg 69%
    18:00 +16°C° 0 mm 2 mps 728 mmHg 76%
    19:00 +14°C° 0 mm 1 mps 728 mmHg 83%
    20:00 +14°C° 0 mm 1 mps 728 mmHg 85%
    21:00 +13°C° 0 mm 1 mps 728 mmHg 87%
    22:00 +13°C° 0 mm 1 mps 728 mmHg 88%
    23:00 +12°C° 0 mm 1 mps 728 mmHg 89%

    18 October, Thursday

    Time Temperature Precipitation Wind Pressure Humidity
    00:00 +12°C° 0 mm 1 mps 728 mmHg 89%
    01:00 +12°C° 0 mm 1 mps 728 mmHg 90%
    02:00 +12°C° 0 mm 1 mps 728 mmHg 91%
    03:00 +11°C° 0 mm 1 mps 728 mmHg 91%
    04:00 +11°C° 0 mm 1 mps 728 mmHg 92%
    05:00 +11°C° 0 mm 1 mps 728 mmHg 92%
    06:00 +11°C° 0 mm 1 mps 728 mmHg 93%
    07:00 +10°C° 0 mm 1 mps 728 mmHg 93%
    08:00 +12°C° 0 mm 1 mps 728 mmHg 86%
    09:00 +14°C° 0 mm 2 mps 729 mmHg 80%
    10:00 +16°C° 0 mm 2 mps 729 mmHg 73%
    11:00 +17°C° 0 mm 2 mps 729 mmHg 68%
    12:00 +18°C° 0 mm 3 mps 729 mmHg 63%
    13:00 +20°C° 0 mm 3 mps 729 mmHg 57%
    14:00 +20°C° 0 mm 3 mps 729 mmHg 59%
    15:00 +19°C° 0 mm 3 mps 729 mmHg 60%
    16:00 +19°C° 0 mm 3 mps 729 mmHg 62%
    17:00 +17°C° 0 mm 3 mps 729 mmHg 68%
    18:00 +15°C° 0 mm 2 mps 729 mmHg 75%
    19:00 +14°C° 0 mm 2 mps 729 mmHg 81%
    20:00 +13°C° 0 mm 2 mps 729 mmHg 83%
    21:00 +13°C° 0 mm 2 mps 730 mmHg 85%
    22:00 +12°C° 0 mm 2 mps 730 mmHg 87%
    23:00 +10°C° 0 mm 2 mps 730 mmHg 88%

    19 October, Friday

    Time Temperature Precipitation Wind Pressure Humidity
    00:00 +10°C° 0 mm 2 mps 730 mmHg 89%
    01:00 +10°C° 0 mm 1 mps 730 mmHg 90%
    02:00 +10°C° 0 mm 1 mps 730 mmHg 90%
    03:00 +10°C° 0 mm 1 mps 730 mmHg 90%
    04:00 +9°C° 0 mm 1 mps 730 mmHg 91%
    05:00 +9°C° 0 mm 1 mps 730 mmHg 91%
    06:00 +9°C° 0 mm 1 mps 730 mmHg 91%
    07:00 +9°C° 0 mm 1 mps 730 mmHg 92%
    08:00 +11°C° 0 mm 1 mps 731 mmHg 84%
    09:00 +13°C° 0 mm 2 mps 731 mmHg 76%
    10:00 +15°C° 0 mm 2 mps 731 mmHg 69%
    11:00 +16°C° 0 mm 2 mps 731 mmHg 64%
    12:00 +18°C° 0 mm 3 mps 732 mmHg 60%
    13:00 +19°C° 0 mm 3 mps 732 mmHg 56%
    14:00 +19°C° 0 mm 3 mps 731 mmHg 57%
    15:00 +19°C° 0 mm 3 mps 731 mmHg 59%
    16:00 +18°C° 0 mm 2 mps 731 mmHg 61%
    17:00 +17°C° 0 mm 2 mps 731 mmHg 68%
    18:00 +15°C° 0 mm 2 mps 732 mmHg 75%
    19:00 +13°C° 0 mm 1 mps 732 mmHg 82%
    20:00 +13°C° 0 mm 1 mps 732 mmHg 84%
    21:00 +12°C° 0 mm 1 mps 732 mmHg 87%
    22:00 +11°C° 0 mm 1 mps 733 mmHg 90%
    23:00 +11°C° 0 mm 1 mps 733 mmHg 91%

    20 October, Saturday

    Time Temperature Precipitation Wind Pressure Humidity
    00:00 +11°C° 0 mm 1 mps 733 mmHg 92%
    01:00 +10°C° 0 mm 1 mps 733 mmHg 93%
    02:00 +10°C° 0 mm 1 mps 733 mmHg 93%
    03:00 +10°C° 0 mm 1 mps 733 mmHg 94%
    04:00 +10°C° 0 mm 1 mps 733 mmHg 94%
    05:00 +10°C° 0 mm 1 mps 733 mmHg 95%
    06:00 +9°C° 0 mm 1 mps 734 mmHg 95%
    07:00 +9°C° 0 mm 1 mps 734 mmHg 96%
    08:00 +11°C° 0 mm 1 mps 734 mmHg 90%
    09:00 +13°C° 0 mm 1 mps 735 mmHg 84%
    10:00 +14°C° 0 mm 2 mps 735 mmHg 78%
    11:00 +15°C° 0 mm 2 mps 735 mmHg 74%
    12:00 +17°C° 0 mm 2 mps 735 mmHg 69%
    13:00 +18°C° 0 mm 2 mps 735 mmHg 65%
    14:00 +17°C° 0 mm 2 mps 735 mmHg 66%
    15:00 +17°C° 0 mm 2 mps 735 mmHg 67%
    16:00 +17°C° 0 mm 2 mps 735 mmHg 67%
    17:00 +15°C° 0 mm 2 mps 735 mmHg 73%
    18:00 +13°C° 0 mm 2 mps 735 mmHg 79%
    19:00 +12°C° 0 mm 2 mps 736 mmHg 84%
    20:00 +10°C° 0 mm 2 mps 736 mmHg 85%
    21:00 +9°C° 0 mm 2 mps 736 mmHg 85%
    22:00 +9°C° 0 mm 2 mps 736 mmHg 86%
    23:00 +9°C° 0 mm 1 mps 736 mmHg 86%
    Show more